Tracking 19792 objects as of 16-Jul-2019
HD Live streaming from Space Station
objects crossing your sky now

SL-18 DEB


SL-18 DEB is no longer on orbit


NORAD ID: 28286
Int'l Code: 1993-014P
Perigee: N/A
Apogee: N/A
Inclination: N/A
Period: N/A
Semi major axis: N/A
RCS: N/A
Launch date: March 25, 1993
Source: Commonwealth of Independent States (former USSR) (CIS)
Launch site: PLESETSK MISSILE AND SPACE COMPLEX (PKMTR)
Decay date: 2015-02-16

Note: This is SATELLITE DEBRIS
aabbcc
Your satellite tracking list
Your tracking list is empty




NASA's NSSDC Master Catalog

Two Line Element Set (TLE):
1 28286U 93014P   15044.80356476  .03550065  00000-0  21219-1 0  9996
2 28286 075.6890 205.9452 0018493 002.0718 359.2234 15.74008236597480
Source of the keplerian elements: AFSPC